THOR ABLESTAR R/B, 893

Orbit data source: Space-Track

THOR ABLESTAR R/B, 893 is space debris in LEO originally from a launch on Tue, 06 Oct 1964 UTC launched from the Air Force Western Test Range (AFWTR). Debris objects in space refer to the collection of defunct objects orbiting the Earth. Examples of debris include non-operational satellites, rocket bodies, and fragments generated from explosions, collisions, or faulty payload assembly.

Loading next visibility...
Identifier
893, 1964-063A
Orbit
LEO
Country
Flag of USUS
Related business
Manufacturer
Aerojet
Mission
Spacecraft
Bus & Motor
ABLESTAR, Unknown motor
Mass
~600 kg wet, 600 kg dry
Launch date (UTC)
1964-10-06 (62 years ago)
Launch vehicle
Unknown
Launch site
Air Force Western Test Range (AFWTR)
Object type
Payload
Rocket body
Debris
Shape & HBR
Unknown
Radar Cross Section
Large (>1 m²)

Expand to show TLE details & history
Last TLE update: 7 hours ago

TLE from 7 hours ago
0 THOR ABLESTAR R/B
1   893U 64063A   26177.73791777  .00000023  00000-0  20724-4 0  9994
2   893  90.2326  75.4186 0025113 191.0706 223.5831 13.56321453 53275
Epoch: 2026-06-26T17:42Z
TLE epoch observation values (Epoch: 2026-06-26T17:42:36.095Z)
Latitude
54.54918°
Longitude
-105.41893°
Altitude
1,071.706 km
Speed
7.315 km/s
True Right ascension
05h 00m 22s
True Declination
54° 23' 36"
Sunlit
Object was in daylight at epoch
Visualization orbit readout
Latitude
Unknown
Longitude
Unknown
Altitude
Unknown
Speed
Unknown
Apparent Right ascension
Unknown
Apparent Declination
Unknown
Sunlit
N/A
Visualization observer readout
Local Sidereal Time
11:57:00
Azimuth
Unknown
Elevation
Unknown
Doppler factor
Unknown
Orbital elements
Apogee altitude
1,064.776 km
Perigee altitude
1,027.487 km
Semi-major axis
7,424.269 km
Eccentricity
0.00251
Inclination
90.2326°
RAAN
75.4186°
Arg. of periapsis
191.0706°
True anomaly
223.38516°
Mean anomaly
223.5831°
Eccentric anomaly
223.48408°
Mean motion
3.39283 °/min
Orbital period
106.11 mins
BSTAR
0.000020724
Loading maneuver chart data...
Computing Atmospheric mass density...
Loading historical data...
Loading historical data...
Loading historical data...
Loading historical data...
Loading historical data...
Loading historical data...
Loading historical data...
Other satellites on launch #63 in the year 1964 (1964-10-06 UTC)

Documentation

Showing up to 5 results
|